When you browse on this site, cookies collect data to enhance your experience and personalize the content and advertising you see.
Visit our Privacy Policy to learn more. By continuing to use the site, you agree to this use of cookies and data.
  • In Hungary
  • List of Countries
  • For 7 days
  • Water Temperature
  • Weather Map
  • News
  • Weather Widgets
  • user-avatar
    Login

    Hourly Weather Zhytomyr

    Today, 17 November, Sunday

    Time Temperature Precipitation Wind Pressure Humidity
    00:00 +9°C° 0 mm 3 mps 749 mmHg 96%
    01:00 +9°C° 0 mm 3 mps 749 mmHg 96%
    02:00 +9°C° 0 mm 3 mps 750 mmHg 95%
    03:00 +9°C° 0 mm 3 mps 750 mmHg 95%
    04:00 +8°C° 0 mm 4 mps 750 mmHg 96%
    05:00 +10°C° 0 mm 4 mps 750 mmHg 96%
    06:00 +8°C° 0 mm 4 mps 750 mmHg 96%
    07:00 +8°C° 0 mm 4 mps 750 mmHg 95%
    08:00 +8°C° 0 mm 4 mps 751 mmHg 94%
    09:00 +10°C° 0 mm 4 mps 751 mmHg 90%
    10:00 +10°C° 0 mm 4 mps 751 mmHg 86%
    11:00 +10°C° 0 mm 4 mps 751 mmHg 83%
    12:00 +11°C° 0 mm 4 mps 750 mmHg 76%
    13:00 +12°C° 0 mm 4 mps 750 mmHg 69%
    14:00 +13°C° 0 mm 4 mps 750 mmHg 62%
    15:00 +12°C° 0 mm 4 mps 750 mmHg 65%
    16:00 +11°C° 0 mm 4 mps 750 mmHg 69%
    17:00 +10°C° 0 mm 4 mps 749 mmHg 72%
    18:00 +8°C° 0 mm 4 mps 749 mmHg 72%
    19:00 +8°C° 0 mm 4 mps 749 mmHg 72%
    20:00 +7°C° 0 mm 4 mps 749 mmHg 73%
    21:00 +7°C° 0 mm 4 mps 749 mmHg 73%
    22:00 +7°C° 0 mm 4 mps 749 mmHg 73%
    23:00 +6°C° 0 mm 4 mps 749 mmHg 73%

    Tomorrow, 18 November, Monday

    Time Temperature Precipitation Wind Pressure Humidity
    00:00 +6°C° 0 mm 4 mps 749 mmHg 74%
    01:00 +5°C° 0 mm 4 mps 749 mmHg 75%
    02:00 +5°C° 0 mm 4 mps 749 mmHg 76%
    03:00 +4°C° 0 mm 4 mps 748 mmHg 77%
    04:00 +4°C° 0 mm 4 mps 748 mmHg 77%
    05:00 +4°C° 0 mm 4 mps 748 mmHg 78%
    06:00 +3°C° 0 mm 4 mps 748 mmHg 80%
    07:00 +3°C° 0 mm 4 mps 748 mmHg 81%
    08:00 +3°C° 0 mm 4 mps 748 mmHg 83%
    09:00 +4°C° 0 mm 4 mps 748 mmHg 77%
    10:00 +5°C° 0 mm 5 mps 748 mmHg 71%
    11:00 +7°C° 0 mm 5 mps 748 mmHg 65%
    12:00 +7°C° 0 mm 5 mps 747 mmHg 63%
    13:00 +8°C° 0 mm 5 mps 747 mmHg 61%
    14:00 +9°C° 0 mm 5 mps 747 mmHg 58%
    15:00 +8°C° 0 mm 5 mps 747 mmHg 63%
    16:00 +7°C° 0 mm 4 mps 746 mmHg 67%
    17:00 +6°C° 0 mm 4 mps 746 mmHg 71%
    18:00 +5°C° 0 mm 4 mps 746 mmHg 74%
    19:00 +5°C° 0 mm 4 mps 746 mmHg 78%
    20:00 +5°C° 0 mm 3 mps 747 mmHg 81%
    21:00 +5°C° 0 mm 4 mps 747 mmHg 82%
    22:00 +6°C° 0 mm 4 mps 747 mmHg 84%
    23:00 +6°C° 0 mm 4 mps 747 mmHg 85%

    Day after tomorrow, 19 November, Tuesday

    Time Temperature Precipitation Wind Pressure Humidity
    00:00 +7°C° 0 mm 4 mps 747 mmHg 87%
    01:00 +8°C° 0 mm 3 mps 747 mmHg 88%
    02:00 +9°C° 0 mm 3 mps 748 mmHg 90%
    03:00 +9°C° 0 mm 3 mps 748 mmHg 91%
    04:00 +9°C° 0 mm 3 mps 748 mmHg 93%
    05:00 +9°C° 0 mm 3 mps 748 mmHg 94%
    06:00 +9°C° 0 mm 3 mps 748 mmHg 95%
    07:00 +8°C° 0 mm 2 mps 748 mmHg 96%
    08:00 +8°C° 0 mm 2 mps 749 mmHg 96%
    09:00 +9°C° 0 mm 2 mps 749 mmHg 91%
    10:00 +12°C° 0 mm 2 mps 749 mmHg 86%
    11:00 +13°C° 0 mm 1 mps 749 mmHg 81%
    12:00 +14°C° 0 mm 1 mps 749 mmHg 77%
    13:00 +14°C° 0 mm 1 mps 749 mmHg 73%
    14:00 +14°C° 0 mm 0 mps 749 mmHg 70%
    15:00 +14°C° 0 mm 1 mps 749 mmHg 75%
    16:00 +13°C° 0 mm 1 mps 749 mmHg 81%
    17:00 +11°C° 0 mm 1 mps 749 mmHg 86%
    18:00 +11°C° 0 mm 1 mps 750 mmHg 88%
    19:00 +11°C° 0 mm 1 mps 750 mmHg 90%
    20:00 +9°C° 0 mm 2 mps 750 mmHg 91%
    21:00 +9°C° 0 mm 2 mps 750 mmHg 92%
    22:00 +9°C° 0 mm 2 mps 750 mmHg 93%
    23:00 +8°C° 0 mm 2 mps 750 mmHg 93%

    20 November, Wednesday

    Time Temperature Precipitation Wind Pressure Humidity
    00:00 +8°C° 0 mm 2 mps 750 mmHg 94%
    01:00 +8°C° 0 mm 2 mps 750 mmHg 94%
    02:00 +7°C° 0 mm 2 mps 750 mmHg 95%
    03:00 +7°C° 0 mm 2 mps 750 mmHg 95%
    04:00 +7°C° 0 mm 2 mps 750 mmHg 96%
    05:00 +7°C° 0 mm 2 mps 750 mmHg 96%
    06:00 +8°C° 0 mm 2 mps 750 mmHg 96%
    07:00 +8°C° 0 mm 3 mps 750 mmHg 96%
    08:00 +8°C° 0 mm 3 mps 750 mmHg 95%
    09:00 +9°C° 0 mm 3 mps 750 mmHg 94%
    10:00 +9°C° 0 mm 3 mps 751 mmHg 92%
    11:00 +10°C° 0 mm 3 mps 751 mmHg 90%
    12:00 +10°C° 0 mm 4 mps 751 mmHg 89%
    13:00 +10°C° 0 mm 4 mps 751 mmHg 88%
    14:00 +10°C° 0 mm 4 mps 751 mmHg 87%
    15:00 +8°C° 0 mm 4 mps 751 mmHg 85%
    16:00 +8°C° 0 mm 4 mps 751 mmHg 83%
    17:00 +7°C° 0 mm 4 mps 751 mmHg 80%
    18:00 +7°C° 0 mm 5 mps 751 mmHg 78%
    19:00 +7°C° 0 mm 5 mps 751 mmHg 75%
    20:00 +6°C° 0 mm 5 mps 751 mmHg 73%
    21:00 +5°C° 0 mm 5 mps 751 mmHg 75%
    22:00 +5°C° 0 mm 5 mps 751 mmHg 77%
    23:00 +3°C° 0 mm 5 mps 752 mmHg 79%

    21 November, Thursday

    Time Temperature Precipitation Wind Pressure Humidity
    00:00 +3°C° 0 mm 5 mps 752 mmHg 79%
    01:00 +2°C° 0 mm 5 mps 752 mmHg 78%
    02:00 +2°C° 0 mm 5 mps 752 mmHg 78%
    03:00 +2°C° 0 mm 5 mps 752 mmHg 78%
    04:00 +1°C° 0 mm 5 mps 752 mmHg 78%
    05:00 +1°C° 0 mm 5 mps 752 mmHg 79%
    06:00 +1°C° 0 mm 6 mps 753 mmHg 79%
    07:00 +1°C° 0 mm 6 mps 753 mmHg 79%
    08:00 +2°C° 0 mm 7 mps 753 mmHg 79%
    09:00 +2°C° 0 mm 7 mps 753 mmHg 76%
    10:00 +2°C° 0 mm 7 mps 754 mmHg 72%
    11:00 +2°C° 0 mm 7 mps 754 mmHg 69%
    12:00 +2°C° 0 mm 6 mps 754 mmHg 65%
    13:00 +2°C° 0 mm 6 mps 754 mmHg 62%
    14:00 +2°C° 0 mm 6 mps 754 mmHg 59%
    15:00 +1°C° 0 mm 6 mps 754 mmHg 59%
    16:00 0°C° 0 mm 5 mps 754 mmHg 59%
    17:00 -1°C° 0 mm 5 mps 754 mmHg 59%
    18:00 -2°C° 0 mm 5 mps 754 mmHg 59%
    19:00 -3°C° 0 mm 6 mps 754 mmHg 58%
    20:00 -4°C° 0 mm 6 mps 755 mmHg 57%
    21:00 -5°C° 0 mm 6 mps 755 mmHg 57%
    22:00 -5°C° 0 mm 5 mps 755 mmHg 56%
    23:00 -6°C° 0 mm 5 mps 755 mmHg 55%

    22 November, Friday

    Time Temperature Precipitation Wind Pressure Humidity
    00:00 -6°C° 0 mm 5 mps 755 mmHg 55%
    01:00 -6°C° 0 mm 5 mps 755 mmHg 56%
    02:00 -7°C° 0 mm 5 mps 755 mmHg 56%
    03:00 -7°C° 0 mm 5 mps 755 mmHg 56%
    04:00 -7°C° 0 mm 5 mps 756 mmHg 57%
    05:00 -8°C° 0 mm 5 mps 756 mmHg 58%
    06:00 -8°C° 0 mm 5 mps 756 mmHg 59%
    07:00 -8°C° 0 mm 5 mps 756 mmHg 61%
    08:00 -8°C° 0 mm 5 mps 756 mmHg 62%
    09:00 -7°C° 0 mm 5 mps 756 mmHg 59%
    10:00 -6°C° 0 mm 5 mps 756 mmHg 55%
    11:00 -5°C° 0 mm 5 mps 756 mmHg 52%
    12:00 -5°C° 0 mm 5 mps 756 mmHg 50%
    13:00 -4°C° 0 mm 5 mps 756 mmHg 49%
    14:00 -4°C° 0 mm 5 mps 755 mmHg 47%
    15:00 -5°C° 0 mm 5 mps 755 mmHg 51%
    16:00 -6°C° 0 mm 5 mps 756 mmHg 54%
    17:00 -7°C° 0 mm 4 mps 756 mmHg 58%
    18:00 -7°C° 0 mm 4 mps 756 mmHg 59%
    19:00 -8°C° 0 mm 4 mps 756 mmHg 61%
    20:00 -8°C° 0 mm 4 mps 756 mmHg 62%
    21:00 -8°C° 0 mm 4 mps 756 mmHg 63%
    22:00 -8°C° 0 mm 4 mps 756 mmHg 63%
    23:00 -7°C° 0 mm 3 mps 756 mmHg 64%
    Show more